Terug naar catalogus

COSMOS 1275 DEB

ActiefPO
NORAD 15766·DEBRIS·🇷🇺 Russia

Gelanceerd Jun 4, 1981 vanaf Plesetsk Cosmodrome

Loading…

Volgende Passages (komende 24 uur)

TLE

VersSource: Space-Track

Epoch: Sep 14, 2026, 21:01 UTC

1 15766U 81053KB  26257.87620204  .00004737  00000-0  12678-2 0  9990
2 15766  82.9337 218.8698 0003923 328.2905  31.8055 14.48131421127121

Volg COSMOS 1275 DEB in realtime met AllMySat

Download on the App Store